Location: Eymir
(36.7333°N, 29.7833°E)
Time: 18:01:28
(UTC+00:00)

IGS 5A - Pass Details

Date: 14 January 2026
Orbit: 551 x 554 km, 97.4° (Epoch: 8 January)

Event Time Altitude Azimuth Distance (km) Brightness Sun altitude
Rises 04:28:16 0° 358° (N) 2,733 6.7 -9.1°
Reaches altitude 10° 04:30:37 10° 347° (NNW) 1,834 5.7 -8.6°
Maximum altitude 04:33:59 27° 288° (WNW) 1,077 4.2 -8.0°
Drops below altitude 10° 04:37:20 10° 230° (SW) 1,823 5.7 -7.4°
Sets 04:39:40 0° 218° (SW) 2,713 6.7 -6.9°
